Location: Skalnate Pleso
(49.1889°N, 20.2450°E)
Time: 23:26:50
(UTC+01:00)

STARLINK-52 - Pass Details

Date: 19 November 2019
Orbit: 443 x 445 km, 53.0° (Epoch: 12 December)

Event Time Altitude Azimuth Distance (km) Brightness Sun altitude
Exits shadow 05:30:53 23° 305° (NW) 993 4.4 -13.5°
Maximum altitude 05:32:43 46° 7° (N) 613 3.8 -13.2°
Drops below altitude 10° 05:36:08 10° 82° (E) 1,569 7.1 -12.7°
Sets 05:38:19 0° 89° (E) 2,440 8.5 -12.3°
